Location: Newark
(54.3386°S, 169.8415°W)
Time: 03:05:53
(UTC+00:00)

Vanguard 1 - Visible Passes

Search period start: 17 October 2019 00:00
Search period end: 27 October 2019 00:00
Orbit: 653 x 3830 km, 34.3° (Epoch: 14 October)

Date Brightness Start Highest point End Pass type
(mag) Time Alt. Az. Time Alt. Az. Time Alt. Az.
20 Oct 14.0 15:06:01 10° NNE 15:13:03 13° NNE 15:19:04 10° NE visible
21 Oct 13.8 15:22:59 10° N 15:33:42 17° NNE 15:42:06 10° ENE visible
23 Oct 14.0 13:47:32 10° NNE 13:53:39 12° NE 13:59:12 10° ENE visible
24 Oct 13.9 14:03:10 10° N 14:14:10 16° NE 14:23:22 10° ENE visible
25 Oct 13.7 14:20:53 10° N 14:34:43 21° NNE 14:45:46 10° ENE visible
26 Oct 13.6 14:39:33 10° NNW 14:55:20 25° NNE 15:07:28 10° ENE visible
